Location: Caltech
(34.1382°N, 118.1253°W)
Time: 12:12:42
(UTC-07:00)

Cosmos 2219 Rocket - Visible Passes

Search period start: 28 August 2015 00:00
Search period end: 07 September 2015 00:00
Orbit: 828 x 847 km, 71.0° (Epoch: 26 August)

Date Brightness Start Highest point End Pass type
(mag) Time Alt. Az. Time Alt. Az. Time Alt. Az.
28 Aug 4.0 02:52:29 25° ENE 02:52:29 25° ENE 02:55:39 10° NE visible
28 Aug 3.0 04:34:14 32° WNW 04:34:40 33° WNW 04:39:42 10° N visible
29 Aug 4.4 02:36:55 20° ENE 02:36:55 20° ENE 02:39:13 10° NE visible
29 Aug 3.0 04:18:40 35° NW 04:18:40 35° NW 04:23:28 10° N visible
30 Aug 4.6 02:21:19 16° ENE 02:21:19 16° ENE 02:22:47 10° NE visible
30 Aug 3.1 04:03:03 35° NW 04:03:03 35° NW 04:07:14 10° N visible
31 Aug 4.9 02:05:40 13° ENE 02:05:40 13° ENE 02:06:19 10° NE visible
31 Aug 3.4 03:47:24 33° NNW 03:47:24 33° NNW 03:51:00 10° N visible
01 Sep 3.6 03:31:42 29° NNW 03:31:42 29° NNW 03:34:45 10° N visible
02 Sep 3.9 03:15:59 25° N 03:15:59 25° N 03:18:29 10° N visible
03 Sep 4.2 03:00:14 22° N 03:00:14 22° N 03:02:14 10° N visible
04 Sep 4.5 02:44:27 19° N 02:44:27 19° N 02:45:58 10° NNE visible
05 Sep 4.7 02:28:38 16° NNE 02:28:38 16° NNE 02:29:41 10° NNE visible
06 Sep 4.9 02:12:48 13° NNE 02:12:48 13° NNE 02:13:24 10° NNE visible
